Flag for U.S.A. Weather past 2 weeks in Cupertino, California, U.S.A.

Now
60 °F

Overcast.


Feels Like: 60 °F
Forecast: 55 / 67 °F
Wind: 7 mph from Northwest

Location: Moffett Field

Current Time: May 22, 2015 at 7:50:47 PM

Latest Report: May 22, 2015 at 6:56 PM


Visibility: 10 mi

Pressure: 30.06 "Hg

Humidity: 69%

Dew point: 50 °F

Location of CupertinoLocation

Historic Weather in Cupertino — Graph

°F

Cupertino temperature yesterday

Maximum temperature yesterday: 67 °F (at 2:56 PM)
Minimum temperature yesterday: 56 °F (at 2:56 AM)
Average temperature yesterday: 60 °F

Past Weeks' High & Low Weather Summary

 TemperatureHumidityPressure
High69 °F (May 8, 1:56 PM)93% (May 15, 5:56 AM)30.14 "Hg (May 15, 5:56 AM)
Low48 °F (May 12, 4:56 AM)35% (May 12, 4:56 PM)29.78 "Hg (May 8, 12:56 AM)
Average58 °F68%29.99 "Hg
* Reported May 7 5:56 PM — May 22 5:56 PM, Cupertino, Weather by CustomWeather, © 2015

Note: Actual official high and low records may vary slightly from our data, if they occured in-between our weather recording intervals... More about our weather records

Advertising

Cupertino weather history for previous 24 hours

 ConditionsComfort  
Time TempWeatherWind HumidityBarometerVisibility
5:56 PM
Fri, May 22
62 °FOvercast.13 mph65%30.05 "Hg10 mi
4:56 PM65 °FSunny.9 mph61%30.03 "Hg10 mi
3:56 PM66 °FPartly sunny.16 mph56%30.03 "Hg10 mi
2:56 PM67 °FPartly sunny.13 mph57%30.02 "Hg10 mi
1:56 PM65 °FMostly cloudy.6 mph61%30.03 "Hg10 mi
12:56 PM64 °FMore clouds than sun.7 mph65%30.04 "Hg10 mi
11:56 AM63 °FOvercast.7 mph68%30.05 "Hg10 mi
10:56 AM62 °FOvercast.7 mph70%30.04 "Hg10 mi
9:56 AM60 °FMostly cloudy.7 mph72%30.04 "Hg10 mi
8:56 AM59 °FMore clouds than sun.3 mph78%30.04 "Hg10 mi
7:56 AM58 °FMostly cloudy.No wind84%30.03 "Hg10 mi
6:56 AM57 °FOvercast.No wind87%30.02 "Hg10 mi
5:56 AM56 °FLight rain. Overcast.3 mph87%30.01 "Hg7 mi
5:04 AM55 °FMostly cloudy.No wind88%30.00 "Hg10 mi
4:56 AM56 °FMostly cloudy.3 mph84%30.00 "Hg10 mi
3:56 AM55 °FOvercast.No wind83%30.00 "Hg10 mi
2:56 AM56 °FPassing clouds.No wind81%30.00 "Hg10 mi
1:56 AM55 °FClear.No wind83%30.00 "Hg10 mi
12:56 AM55 °FClear.No wind83%30.00 "Hg10 mi
11:56 PM
Thu, May 21
57 °FClear.3 mph78%30.00 "Hg10 mi
10:56 PM58 °FPassing clouds.No wind78%30.00 "Hg10 mi
9:56 PM59 °FPassing clouds.6 mph72%29.99 "Hg10 mi
8:56 PM59 °FPassing clouds.7 mph75%29.97 "Hg10 mi
7:56 PM60 °FOvercast.8 mph69%29.96 "Hg10 mi
Weather by CustomWeather, © 2015

See weather overviewHow to use our weather pages